Location: Cañada de la Miga
(34.7595°N, 106.2317°W)
Time: 03:06:25
(UTC+00:00)

Explorer 7 - All Passes

Search period start: 28 November 2021 00:00
Search period end: 08 December 2021 00:00
Orbit: 483 x 675 km, 50.3° (Epoch: 27 November)

Date Brightness Start Highest point End Pass type
(mag) Time Alt. Az. Time Alt. Az. Time Alt. Az.
28 Nov - 12:52:11 10° S 12:55:23 20° SE 12:58:28 10° E visible
28 Nov - 14:31:30 10° WSW 14:35:38 51° NW 14:39:32 10° NE daylight
28 Nov - 16:14:57 10° NW 16:16:46 13° NNW 16:18:33 10° N daylight
28 Nov - 19:38:08 10° NNW 19:40:33 16° NNE 19:42:57 10° ENE daylight
28 Nov - 21:17:39 10° NW 21:21:22 87° SW 21:25:09 10° SE daylight
29 Nov - 12:55:20 10° SSW 12:59:18 35° SE 13:03:05 10° ENE visible
29 Nov - 14:35:57 10° W 14:39:45 32° NNW 14:43:23 10° NNE daylight
29 Nov - 16:20:45 10° NNW 16:21:10 10° NNW 16:21:35 10° N daylight
29 Nov - 19:41:47 10° NNW 19:44:49 23° NNE 19:47:50 10° E daylight
29 Nov - 21:21:47 10° WNW 21:25:22 46° SW 21:29:00 10° SSE daylight
30 Nov - 12:58:57 10° SW 13:03:17 62° SE 13:07:21 10° NE visible
30 Nov - 14:40:38 10° W 14:43:57 22° NNW 14:47:09 10° NNE daylight
30 Nov - 18:07:13 10° N 18:07:39 10° NNE 18:08:05 10° NNE daylight
30 Nov - 19:45:33 10° NNW 19:49:01 34° NNE 19:52:28 10° E daylight
30 Nov - 21:26:12 10° WNW 21:29:18 25° SW 21:32:25 10° S daylight
01 Dec - 11:25:00 10° SSE 11:27:11 14° SE 11:29:19 10° E visible
01 Dec - 13:02:54 10° SW 13:07:17 78° NW 13:11:25 10° NE visible
01 Dec - 14:45:32 10° WNW 14:48:13 16° NNW 14:50:50 10° NNE daylight
01 Dec - 18:10:13 10° N 18:12:02 13° NNE 18:13:51 10° NE daylight
01 Dec - 19:49:25 10° NW 19:53:08 58° NE 19:56:49 10° ESE daylight
01 Dec - 21:31:12 10° W 21:33:09 14° SW 21:35:07 10° SSW daylight
02 Dec - 11:27:28 10° S 11:31:03 23° SE 11:34:29 10° ENE visible
02 Dec - 13:07:07 10° WSW 13:11:21 47° NW 13:15:21 10° NE visible
02 Dec - 14:50:41 10° NW 14:52:34 13° NNW 14:54:24 10° N daylight
02 Dec - 18:13:45 10° NNW 18:16:22 17° NNE 18:18:57 10° ENE daylight
02 Dec - 19:53:24 10° NW 19:57:10 77° SW 20:00:54 10° SE daylight
03 Dec - 11:30:45 10° SSW 11:34:58 40° SE 11:38:58 10° ENE visible
03 Dec - 13:11:36 10° W 13:15:29 31° NNW 13:19:11 10° NNE visible
03 Dec - 14:56:17 10° NNW 14:56:58 10° NNW 14:57:39 10° N daylight
03 Dec - 18:17:25 10° NNW 18:20:38 25° NNE 18:23:46 10° E daylight
03 Dec - 19:57:35 10° WNW 20:01:08 40° SW 20:04:39 10° SSE daylight
04 Dec - 11:34:26 10° SW 11:38:55 70° SE 11:43:10 10° NE visible
04 Dec - 13:16:18 10° W 13:19:41 22° NNW 13:22:56 10° NNE visible
04 Dec - 16:42:19 10° N 16:43:27 11° NNE 16:44:35 10° NNE daylight
04 Dec - 18:21:12 10° NW 18:24:48 38° NE 18:28:19 10° ESE daylight
04 Dec - 20:02:04 10° WNW 20:05:01 22° SW 20:07:57 10° S daylight
05 Dec - 10:00:01 10° SSE 10:02:47 16° SE 10:05:28 10° E night (unlit)
05 Dec - 11:38:25 10° SW 11:42:57 71° NW 11:47:12 10° NE visible
05 Dec - 13:21:13 10° WNW 13:23:57 16° NNW 13:26:38 10° NNE visible
05 Dec - 16:45:41 10° NNW 16:47:50 14° NNE 16:49:56 10° NE daylight
05 Dec - 18:25:05 10° NW 18:28:54 66° NE 18:32:36 10° ESE daylight
05 Dec - 20:07:20 10° WSW 20:08:50 12° SW 20:10:22 10° SSW daylight
06 Dec - 10:02:45 10° S 10:06:39 27° SE 10:10:22 10° ENE night (unlit)
06 Dec - 11:42:41 10° WSW 11:47:01 44° NW 11:51:06 10° NE visible
06 Dec - 13:26:19 10° NW 13:28:18 13° NNW 13:30:14 10° N visible
06 Dec - 16:49:17 10° NNW 16:52:09 19° NNE 16:54:55 10° ENE daylight
06 Dec - 18:29:06 10° NW 18:32:54 68° SW 18:36:37 10° SE daylight
07 Dec - 10:06:07 10° SSW 10:10:33 45° SE 10:14:46 10° ENE night (unlit)
07 Dec - 11:47:11 10° W 11:51:09 30° NNW 11:54:55 10° NNE visible
07 Dec - 13:31:44 10° NNW 13:32:42 11° NNW 13:33:39 10° N visible
07 Dec - 16:52:59 10° NNW 16:56:23 27° NNE 16:59:39 10° E daylight
07 Dec - 18:33:19 10° WNW 18:36:50 36° SW 18:40:16 10° SSE daylight
